Location: Brasstown Bald
(34.8693°N, 83.8103°W)
Time: 00:46:55
(UTC-05:00)

Amateur Radio Satellites - All Passes

Search period start: 23 November 2014 00:16
Search period end: 24 November 2014 00:16
Location: Brasstown Bald, 34.8693°N, 83.8103°W

Satellite Date Start Highest point End Downlink Frequencies (MHz)
Time Altitude Azimuth
ISS 23 Nov 00:22:44 00:25:56 53° 134° (SE) 00:29:09 145.825
ITUPSAT 1 23 Nov 00:25:41 00:29:21 22° 68° (ENE) 00:33:02 437.325
POPSAT HIP 1 23 Nov 00:30:37 00:33:37 19° 291° (WNW) 00:36:37 437.405
BUGSAT 1 23 Nov 00:35:52 00:38:48 19° 291° (WNW) 00:41:41 437.445
SWISSCUBE 23 Nov 00:37:23 00:41:38 32° 70° (ENE) 00:45:53 437.505
CUSAT 1 23 Nov 00:54:31 00:59:05 89° 83° (E) 01:05:17 437.405
DANDE 23 Nov 01:04:47 01:09:11 86° 262° (W) 01:15:12 436.750
BEESAT 23 Nov 01:08:41 01:13:25 66° 75° (ENE) 01:18:11 436.000
SPROUT 23 Nov 01:17:36 01:19:56 14° 267° (W) 01:22:18 437.525
TISAT 1 23 Nov 01:19:54 01:21:14 11° 268° (W) 01:22:35 437.305
RS-15 23 Nov 01:28:59 01:39:45 48° 52° (NE) 01:50:55 29.354- 29.394
Oscar 19 23 Nov 01:35:06 01:39:52 37° 98° (E) 01:44:37 437.125/150
AUBIESAT-1 23 Nov 01:36:57 01:40:05 24° 261° (W) 01:43:28 437.475
YUBILEINY 23 Nov 01:38:43 01:43:21 16° 79° (ENE) 01:47:57 435.215
M-CUBED/EXP-1 PRIME 23 Nov 01:40:01 01:42:53 20° 262° (W) 01:45:57 437.505
JUGNU 23 Nov 01:42:13 01:45:48 16° 172° (S) 01:49:23 437.505
SRMSAT 23 Nov 01:48:15 01:49:48 11° 165° (SSE) 01:51:21 437.500
STARS 23 Nov 01:59:22 02:03:09 29° 71° (ENE) 02:06:56 437.465
ISS 23 Nov 02:00:40 02:02:48 16° 330° (NNW) 02:04:58 145.825
ITUPSAT 1 23 Nov 02:02:42 02:07:00 33° 262° (W) 02:11:21 437.325
MaSat-1 23 Nov 02:06:31 02:08:50 87° 66° (ENE) 02:11:15 437.345
SWISSCUBE 23 Nov 02:15:47 02:19:29 22° 265° (W) 02:23:12 437.505
ITAMSAT 1 23 Nov 02:20:22 02:25:10 38° 98° (E) 02:29:56 435.822/435.867
KKS-1 23 Nov 02:31:53 02:36:21 77° 258° (WSW) 02:40:49 437.445
Gurwin Techsat 1B 23 Nov 02:32:28 02:36:59 28° 96° (E) 02:41:29 435.225
BEESAT 23 Nov 02:50:54 02:51:38 10° 269° (W) 02:52:23 436.000
Oscar 19 23 Nov 03:14:59 03:18:56 23° 293° (WNW) 03:22:53 437.125/150
YUBILEINY 23 Nov 03:30:02 03:38:52 87° 276° (W) 03:47:43 435.215
JUGNU 23 Nov 03:30:09 03:34:07 18° 182° (S) 03:38:06 437.505
SRMSAT 23 Nov 03:34:24 03:38:15 18° 175° (S) 03:42:05 437.500
STARS 23 Nov 03:36:15 03:39:36 21° 264° (W) 03:42:57 437.465
AO-7 23 Nov 03:38:15 03:44:33 23° 95° (E) 03:50:49 29.400- 29.500
RS-15 23 Nov 03:41:30 03:52:03 47° 251° (WSW) 04:03:04 29.354- 29.394
HORYU 2 23 Nov 03:41:49 03:46:17 63° 101° (ESE) 03:50:44 437.375
ITAMSAT 1 23 Nov 04:00:28 04:04:23 22° 293° (WNW) 04:08:17 435.822/435.867
Gurwin Techsat 1B 23 Nov 04:12:17 04:16:52 31° 291° (WNW) 04:21:27 435.225
SO-50 23 Nov 04:36:29 04:40:55 72° 117° (ESE) 04:45:31 436.795
MOZHAYETS 4 23 Nov 04:48:40 04:53:14 77° 76° (ENE) 04:57:51
BEESAT 3 23 Nov 05:14:38 05:16:04 11° 47° (NE) 05:17:28 437.485
JUGNU 23 Nov 05:19:42 05:22:25 13° 192° (SSW) 05:25:09 437.505
HORYU 2 23 Nov 05:21:23 05:22:23 11° 296° (WNW) 05:23:23 437.375
SRMSAT 23 Nov 05:22:51 05:26:43 18° 185° (S) 05:30:35 437.500
BEESAT 2 23 Nov 05:26:39 05:28:52 14° 48° (NE) 05:31:04 435.950
AO-7 23 Nov 05:29:31 05:37:47 67° 291° (WNW) 05:46:02 29.400- 29.500
YUBILEINY 23 Nov 05:32:14 05:36:52 15° 295° (WNW) 05:41:32 435.215
STRAND 1 23 Nov 05:33:23 05:36:41 18° 65° (ENE) 05:40:00 437.568
PRISM 23 Nov 05:37:19 05:41:20 47° 74° (ENE) 05:45:24 437.425
JAS-2 23 Nov 05:40:46 05:47:51 65° 100° (E) 05:54:03 435.910
PCSat 23 Nov 05:43:30 05:48:36 40° 58° (ENE) 05:53:40 145.827
AIST 2 23 Nov 05:46:51 05:48:25 12° 46° (NE) 05:49:58 435.215
O/OREOS (USA 219) 23 Nov 06:02:23 06:05:53 23° 102° (ESE) 06:09:22 437.305
Cubesat XI-IV 23 Nov 06:13:03 06:17:44 31° 97° (E) 06:22:22 437.490
SO-50 23 Nov 06:19:54 06:22:00 13° 315° (NW) 06:24:08 436.795
CUBESAT XI-V 23 Nov 06:20:38 06:25:11 50° 74° (ENE) 06:29:45 437.345
BEESAT 3 23 Nov 06:50:35 06:54:44 68° 243° (WSW) 06:58:50 437.485
ISS 23 Nov 06:54:28 06:56:48 18° 31° (NNE) 06:59:07 145.825
CUTE-I 23 Nov 06:54:55 07:00:15 80° 103° (ESE) 07:05:33 437.470
BEESAT 2 23 Nov 07:03:22 07:07:28 53° 245° (WSW) 07:11:30 435.950
STRAND 1 23 Nov 07:10:28 07:15:26 49° 260° (W) 07:20:26 437.568
SRMSAT 23 Nov 07:13:19 07:15:09 11° 195° (SSW) 07:17:00 437.500
PRISM 23 Nov 07:15:51 07:17:07 11° 268° (W) 07:18:24 437.425
AIST 1 23 Nov 07:22:05 07:26:16 43° 80° (E) 07:30:24
AIST 2 23 Nov 07:23:14 07:27:31 70° 243° (WSW) 07:31:43 435.215
AO-7 23 Nov 07:25:56 07:28:59 13° 309° (NW) 07:32:03 29.400- 29.500
JAS-2 23 Nov 07:27:07 07:32:03 21° 299° (WNW) 07:36:38 435.910
GONETS M04 23 Nov 07:27:30 07:32:48 18° 80° (E) 07:38:05
PCSat 23 Nov 07:27:31 07:31:42 23° 254° (WSW) 07:35:52 145.827
O/OREOS (USA 219) 23 Nov 07:41:16 07:45:06 27° 296° (WNW) 07:48:57 437.305
Cubesat XI-IV 23 Nov 07:53:12 07:57:41 28° 292° (WNW) 08:02:08 437.490
CUBESAT XI-V 23 Nov 08:00:33 08:02:52 14° 268° (W) 08:05:11 437.345
ISS 23 Nov 08:30:26 08:33:37 46° 226° (SW) 08:36:48 145.825
CUTE-I 23 Nov 08:37:58 08:39:35 11° 298° (WNW) 08:41:12 437.470
SEEDS 23 Nov 08:42:14 08:44:57 16° 94° (E) 08:47:40 437.485
AIST 1 23 Nov 09:01:42 09:03:27 12° 275° (W) 09:05:11
CANX-2 23 Nov 09:04:40 09:08:43 39° 98° (E) 09:12:44 2200.000
AAUSAT CUBESAT 2 23 Nov 09:05:00 09:08:21 22° 96° (E) 09:11:40 437.432
DOVE 4 23 Nov 09:08:09 09:11:03 18° 95° (E) 09:14:00 437.250
COMPASS 1 23 Nov 09:17:35 09:21:31 36° 98° (E) 09:25:27 437.405
GONETS M04 23 Nov 09:19:40 09:28:27 80° 277° (W) 09:37:21
HO-68 23 Nov 09:19:52 09:26:57 60° 102° (ESE) 09:33:59 435.675
ANTELSAT 23 Nov 09:24:49 09:26:47 13° 66° (ENE) 09:28:45 437.575/2403.000
DELFI C3 23 Nov 09:26:46 09:29:20 16° 94° (E) 09:31:53 145.870
GOMX 1 23 Nov 09:34:44 09:38:48 53° 100° (E) 09:42:57 467.674
CUTE 1.7 & AOD 2 23 Nov 09:39:34 09:43:52 83° 283° (WNW) 09:48:10 437.475
POPSAT HIP 1 23 Nov 09:45:28 09:48:00 16° 68° (ENE) 09:50:32 437.405
BRITE-PL 23 Nov 09:47:26 09:51:34 72° 284° (WNW) 09:55:44 437.365/2234.400
BUGSAT 1 23 Nov 09:48:36 09:50:49 14° 67° (ENE) 09:53:01 437.445
FUNcube-1 23 Nov 09:51:21 09:53:50 15° 94° (E) 09:56:21 145.935
UKube-1 23 Nov 09:52:27 09:56:25 34° 98° (E) 10:00:20 .
CUBEBUG 2 23 Nov 10:01:42 10:05:23 29° 97° (E) 10:09:08 437.445
Oscar 11 23 Nov 10:05:52 10:10:10 59° 100° (E) 10:14:27 145.826/435.025
CINEMA 3 23 Nov 10:06:17 10:10:25 54° 100° (E) 10:14:39 145.822/145.860
UWE-3 23 Nov 10:08:28 10:12:12 29° 97° (E) 10:15:59 435.000/436.395/437.385
POLYITAN 1 23 Nov 10:15:32 10:19:25 35° 72° (ENE) 10:23:18 437.675
SEEDS 23 Nov 10:17:00 10:20:51 34° 287° (WNW) 10:24:42 437.485
TIGRISAT 23 Nov 10:18:41 10:22:52 55° 75° (ENE) 10:27:02 435.000
QB50P2 23 Nov 10:18:45 10:22:43 38° 73° (ENE) 10:26:40 145.880/145.840
DX 1 23 Nov 10:24:33 10:28:55 87° 102° (ESE) 10:33:15 434.975-435.025
DUCHIFAT 1 23 Nov 10:26:42 10:30:48 47° 74° (ENE) 10:34:53 145.980
UNISAT 6 23 Nov 10:30:27 10:34:45 80° 77° (ENE) 10:39:02 437.425
SHINDAISAT 23 Nov 10:32:40 10:33:47 17° 115° (ESE) 10:34:56 437.305
AAUSAT CUBESAT 2 23 Nov 10:40:30 10:43:56 25° 289° (WNW) 10:47:22 437.432
VELOX 1 23 Nov 10:40:54 10:44:59 36° 98° (E) 10:49:03 145.980
CANX-2 23 Nov 10:41:52 10:44:18 15° 292° (WNW) 10:46:43 2200.000
DOVE 4 23 Nov 10:45:16 10:48:51 28° 288° (WNW) 10:52:29 437.250
NANOSAT C BR1 23 Nov 10:45:24 10:49:40 82° 76° (ENE) 10:53:56 145.865
ZACube-1 23 Nov 10:50:09 10:54:23 83° 102° (ESE) 10:58:42 437.345
COMPASS 1 23 Nov 10:54:23 10:56:56 16° 292° (WNW) 10:59:29 437.405
QB50P1 23 Nov 10:54:52 10:59:08 76° 258° (WSW) 11:03:24 145.935-145.965
HUMSAT D 23 Nov 10:56:41 11:00:47 56° 100° (E) 11:04:54 437.325/437.525
ANTELSAT 23 Nov 10:59:04 11:03:11 45° 261° (W) 11:07:17 437.575/2403.000
DELFI C3 23 Nov 11:00:59 11:04:42 33° 288° (WNW) 11:08:24 145.870
AISAT 23 Nov 11:04:57 11:09:23 74° 102° (ESE) 11:13:47 437.250
50 SAT 23 Nov 11:06:07 11:10:08 60° 101° (E) 11:14:09 437.505
HO-68 23 Nov 11:08:42 11:14:05 24° 298° (WNW) 11:19:27 435.675
GOMX 1 23 Nov 11:16:14 11:16:28 10° 294° (WNW) 11:16:43 467.674
POPSAT HIP 1 23 Nov 11:19:37 11:23:35 37° 261° (W) 11:27:33 437.405
BUGSAT 1 23 Nov 11:21:52 11:25:55 42° 261° (W) 11:29:59 437.445
GONETS M04 23 Nov 11:22:52 11:26:41 13° 296° (WNW) 11:30:33
FUNcube-1 23 Nov 11:26:25 11:30:16 36° 287° (WNW) 11:34:12 145.935
UKube-1 23 Nov 11:29:24 11:32:17 18° 293° (WNW) 11:35:10 .
CUBEBUG 1 23 Nov 11:29:32 11:33:44 45° 99° (E) 11:37:53 437.445
CUBEBUG 2 23 Nov 11:38:52 11:41:54 20° 290° (WNW) 11:44:59 437.445
Oscar 11 23 Nov 11:44:54 11:45:48 11° 295° (WNW) 11:46:41 145.826/435.025
UWE-3 23 Nov 11:45:33 11:48:32 19° 291° (WNW) 11:51:34 435.000/436.395/437.385
CINEMA 3 23 Nov 11:46:21 11:47:10 11° 294° (WNW) 11:48:00 145.822/145.860
POLYITAN 1 23 Nov 11:52:50 11:55:27 16° 266° (W) 11:58:04 437.675
QB50P2 23 Nov 11:56:24 11:58:45 14° 266° (W) 12:01:07 145.880/145.840
ESTCUBE 1 23 Nov 12:04:49 12:09:20 65° 285° (WNW) 12:13:48 437.505/2401.250
DUCHIFAT 1 23 Nov 12:05:22 12:06:53 12° 267° (W) 12:08:24 145.980
VELOX 1 23 Nov 12:18:25 12:21:16 17° 293° (WNW) 12:24:06 145.980
HUMSAT D 23 Nov 12:35:43 12:36:06 10° 294° (WNW) 12:36:28 437.325/437.525
SWISSCUBE 23 Nov 12:44:11 12:45:01 10° 91° (E) 12:45:52 437.505
Oscar 19 23 Nov 12:48:48 12:53:30 38° 71° (ENE) 12:58:12 437.125/150
TISAT 1 23 Nov 13:05:20 13:09:26 53° 286° (WNW) 13:13:30 437.305
SPROUT 23 Nov 13:05:42 13:09:56 62° 285° (WNW) 13:14:08 437.525
CUBEBUG 1 23 Nov 13:07:32 13:09:41 14° 294° (WNW) 13:11:50 437.445
SO-50 23 Nov 13:11:27 13:15:39 28° 53° (NE) 13:19:52 436.795
BEESAT 23 Nov 13:13:21 13:17:04 22° 95° (E) 13:20:44 436.000
AUBIESAT-1 23 Nov 13:21:49 13:26:22 37° 102° (ESE) 13:30:47 437.475
M-CUBED/EXP-1 PRIME 23 Nov 13:24:48 13:29:31 44° 103° (ESE) 13:34:07 437.505
ITAMSAT 1 23 Nov 13:35:03 13:39:55 42° 71° (ENE) 13:44:49 435.822/435.867
YUBILEINY 23 Nov 13:44:57 13:52:59 40° 76° (ENE) 14:00:56 435.215
Gurwin Techsat 1B 23 Nov 13:50:19 13:54:59 32° 70° (ENE) 13:59:40 435.225
ITUPSAT 1 23 Nov 14:06:18 14:11:08 84° 103° (ESE) 14:15:55 437.325
CUSAT 1 23 Nov 14:06:27 14:09:11 31° 280° (W) 14:11:37 437.405
SWISSCUBE 23 Nov 14:18:30 14:23:16 65° 285° (WNW) 14:27:59 437.505
DANDE 23 Nov 14:19:30 14:22:14 26° 280° (W) 14:24:37 436.750
VERMONT LUNAR 23 Nov 14:25:52 14:28:06 16° 142° (SE) 14:30:21 437.305
KKS-1 23 Nov 14:27:10 14:30:54 26° 97° (E) 14:34:37 437.445
Oscar 19 23 Nov 14:29:08 14:32:54 21° 265° (W) 14:36:42 437.125/150
AO-7 23 Nov 14:34:13 14:40:34 25° 59° (ENE) 14:46:57 29.400- 29.500
HORYU 2 23 Nov 14:37:25 14:41:30 38° 72° (ENE) 14:45:36 437.375
BEESAT 23 Nov 14:50:39 14:54:54 32° 290° (WNW) 14:59:07 436.000
SO-50 23 Nov 14:51:53 14:56:10 31° 248° (WSW) 15:00:27 436.795
AUBIESAT-1 23 Nov 14:57:16 15:01:04 23° 296° (WNW) 15:04:49 437.475
M-CUBED/EXP-1 PRIME 23 Nov 15:00:39 15:04:10 20° 298° (WNW) 15:07:39 437.505
ITAMSAT 1 23 Nov 15:15:47 15:19:31 20° 265° (W) 15:23:17 435.822/435.867
STARS 23 Nov 15:28:31 15:32:55 87° 282° (WNW) 15:37:18 437.465
Gurwin Techsat 1B 23 Nov 15:30:30 15:34:54 26° 264° (W) 15:39:20 435.225
MaSat-1 23 Nov 15:32:25 15:35:19 32° 110° (ESE) 15:37:59 437.345
PHONESAT 2.4 23 Nov 15:40:00 15:43:30 41° 149° (SSE) 15:47:02 2401.200-2431.200
YUBILEINY 23 Nov 15:41:49 15:49:37 39° 273° (W) 15:57:24 435.215
JAS-2 23 Nov 15:48:41 15:54:23 24° 62° (ENE) 16:00:15 435.910
RS-15 23 Nov 15:49:09 15:59:02 40° 107° (ESE) 16:08:46 29.354- 29.394
VERMONT LUNAR 23 Nov 16:02:37 16:06:14 86° 156° (SSE) 16:09:52 437.305
KKS-1 23 Nov 16:03:54 16:07:24 23° 291° (WNW) 16:10:54 437.445
O/OREOS (USA 219) 23 Nov 16:15:04 16:18:48 25° 63° (ENE) 16:22:31 437.305
HORYU 2 23 Nov 16:15:37 16:18:17 16° 266° (W) 16:20:58 437.375
AO-7 23 Nov 16:24:27 16:32:39 66° 256° (WSW) 16:40:55 29.400- 29.500
CUTE-I 23 Nov 16:38:37 16:39:32 10° 61° (ENE) 16:40:27 437.470
MOZHAYETS 4 23 Nov 16:48:02 16:51:48 24° 95° (E) 16:55:33
PHONESAT 2.4 23 Nov 17:18:41 17:22:18 49° 345° (NNW) 17:25:55 2401.200-2431.200
JAS-2 23 Nov 17:31:16 17:38:36 67° 259° (W) 17:46:27 435.910
Cubesat XI-IV 23 Nov 17:31:47 17:36:41 37° 70° (ENE) 17:41:35 437.490
VERMONT LUNAR 23 Nov 17:41:35 17:44:58 35° 352° (N) 17:48:20 437.305
O/OREOS (USA 219) 23 Nov 17:54:28 17:58:03 24° 258° (WSW) 18:01:38 437.305
RS-15 23 Nov 18:00:23 18:10:58 52° 307° (NW) 18:21:35 29.354- 29.394
CUTE-I 23 Nov 18:13:26 18:18:48 87° 256° (WSW) 18:24:11 437.470
CUBESAT XI-V 23 Nov 18:22:17 18:25:13 16° 93° (E) 18:28:07 437.345
MOZHAYETS 4 23 Nov 18:25:00 18:28:57 28° 289° (WNW) 18:32:53
PHONESAT 2.4 23 Nov 18:58:09 19:01:33 33° 2° (N) 19:04:57 2401.200-2431.200
PRISM 23 Nov 18:59:18 19:03:29 60° 285° (WNW) 19:07:37 437.425
Cubesat XI-IV 23 Nov 19:12:36 19:16:48 23° 265° (W) 19:21:02 437.490
VERMONT LUNAR 23 Nov 19:20:32 19:23:56 37° 9° (N) 19:27:20 437.305
STRAND 1 23 Nov 19:24:18 19:29:25 75° 103° (ESE) 19:34:29 437.568
GONETS M04 23 Nov 19:34:30 19:42:52 45° 77° (ENE) 19:51:06
HO-68 23 Nov 19:45:17 19:51:27 32° 65° (ENE) 19:57:39 435.675
AIST 1 23 Nov 19:48:26 19:52:16 31° 90° (E) 19:56:09
CANX-2 23 Nov 19:55:39 19:58:39 19° 69° (ENE) 20:01:40 2200.000
AAUSAT CUBESAT 2 23 Nov 19:55:59 19:56:50 11° 66° (ENE) 19:57:41 437.432
CUBESAT XI-V 23 Nov 19:58:26 20:02:47 40° 287° (WNW) 20:07:06 437.345
COMPASS 1 23 Nov 20:07:22 20:10:06 17° 69° (ENE) 20:12:50 437.405
DOVE 4 23 Nov 20:11:40 20:14:21 15° 68° (ENE) 20:16:58 437.250
RS-15 23 Nov 20:20:43 20:26:46 16° 336° (NNW) 20:32:54 29.354- 29.394
PCSat 23 Nov 20:21:26 20:26:48 75° 114° (ESE) 20:32:14 145.827
CUTE 1.7 & AOD 2 23 Nov 20:29:31 20:33:31 44° 74° (ENE) 20:37:32 437.475
PHONESAT 2.4 23 Nov 20:37:03 20:40:44 60° 19° (NNE) 20:44:24 2401.200-2431.200
GOMX 1 23 Nov 20:39:28 20:44:08 43° 74° (ENE) 20:48:31 467.674
BEESAT 3 23 Nov 20:42:26 20:46:23 52° 115° (ESE) 20:50:25 437.485
UKube-1 23 Nov 20:45:13 20:48:25 20° 68° (ENE) 20:51:37 .
BRITE-PL 23 Nov 20:54:15 20:59:29 88° 77° (ENE) 21:04:20 437.365/2234.400
BEESAT 2 23 Nov 20:55:36 20:59:39 67° 117° (ESE) 21:03:48 435.950
Oscar 11 23 Nov 20:57:53 21:01:37 30° 71° (ENE) 21:05:22 145.826/435.025
CUBEBUG 2 23 Nov 20:58:13 21:01:01 17° 69° (ENE) 21:03:47 437.445
VERMONT LUNAR 23 Nov 20:59:00 21:02:38 76° 205° (SSW) 21:06:14 437.305
UWE-3 23 Nov 21:03:57 21:06:42 17° 69° (ENE) 21:09:26 435.000/436.395/437.385
CINEMA 3 23 Nov 21:05:20 21:09:24 34° 73° (ENE) 21:13:18 145.822/145.860
SEEDS 23 Nov 21:05:43 21:09:53 75° 259° (WSW) 21:14:05 437.485
STRAND 1 23 Nov 21:06:18 21:07:55 11° 298° (WNW) 21:09:31 437.568
DX 1 23 Nov 21:16:58 21:21:11 49° 74° (ENE) 21:25:25 434.975-435.025
AIST 2 23 Nov 21:18:28 21:22:34 56° 116° (ESE) 21:26:46 435.215
AIST 1 23 Nov 21:26:58 21:29:58 18° 285° (WNW) 21:32:59
AAUSAT CUBESAT 2 23 Nov 21:27:57 21:32:00 53° 260° (W) 21:36:05 437.432
CANX-2 23 Nov 21:30:45 21:34:23 28° 263° (W) 21:38:03 2200.000
GONETS M04 23 Nov 21:31:42 21:39:22 35° 274° (W) 21:47:00
HO-68 23 Nov 21:32:10 21:38:54 43° 260° (W) 21:45:41 435.675
VELOX 1 23 Nov 21:36:12 21:39:44 23° 69° (ENE) 21:43:16 145.980
COMPASS 1 23 Nov 21:41:52 21:45:34 31° 263° (W) 21:49:18 437.405
ZACube-1 23 Nov 21:43:25 21:47:25 41° 74° (ENE) 21:51:22 437.345
DELFI C3 23 Nov 21:46:04 21:50:07 83° 258° (WSW) 21:54:13 145.870
HUMSAT D 23 Nov 21:46:29 21:49:56 26° 71° (ENE) 21:53:23 437.325/437.525
DOVE 4 23 Nov 21:47:15 21:51:49 44° 261° (W) 21:56:07 437.250
50 SAT 23 Nov 21:52:34 21:55:52 25° 71° (ENE) 21:59:10 437.505
AISAT 23 Nov 22:00:00 22:04:16 44° 73° (ENE) 22:08:32 437.250
PCSat 23 Nov 22:07:45 22:10:47 15° 311° (NW) 22:13:51 145.827
CUTE 1.7 & AOD 2 23 Nov 22:08:01 22:09:39 12° 268° (W) 22:11:17 437.475
TIGRISAT 23 Nov 22:15:02 22:17:39 15° 94° (E) 22:20:18 435.000
PHONESAT 2.4 23 Nov 22:16:08 22:19:24 29° 213° (SSW) 22:22:38 2401.200-2431.200
FUNcube-1 23 Nov 22:18:56 22:23:11 71° 258° (WSW) 22:27:22 145.935
GOMX 1 23 Nov 22:19:18 22:22:20 16° 265° (W) 22:25:15 467.674
UKube-1 23 Nov 22:20:33 22:24:22 29° 262° (W) 22:28:11 .
BEESAT 3 23 Nov 22:22:46 22:24:55 14° 312° (NW) 22:27:06 437.485
CUBEBUG 1 23 Nov 22:23:05 22:26:47 26° 70° (ENE) 22:30:29 437.445
UNISAT 6 23 Nov 22:26:33 22:29:59 22° 96° (E) 22:33:27 437.425
CUBEBUG 2 23 Nov 22:33:34 22:37:29 33° 262° (W) 22:41:19 437.445
Oscar 11 23 Nov 22:34:45 22:37:47 19° 265° (W) 22:40:51 145.826/435.025
NANOSAT C BR1 23 Nov 22:35:30 22:38:16 17° 94° (E) 22:41:02 145.865
BEESAT 2 23 Nov 22:37:01 22:38:24 11° 313° (NW) 22:39:47 435.950
VERMONT LUNAR 23 Nov 22:38:51 22:40:42 14° 219° (SW) 22:42:32 437.305
UWE-3 23 Nov 22:39:07 22:43:00 33° 262° (W) 22:46:49 435.000/436.395/437.385
RS-15 23 Nov 22:41:45 22:46:16 13° 15° (NNE) 22:50:50 29.354- 29.394
CINEMA 3 23 Nov 22:43:44 22:46:39 17° 265° (W) 22:49:30 145.822/145.860
QB50P1 23 Nov 22:44:35 22:47:53 22° 96° (E) 22:51:10 145.935-145.965
ANTELSAT 23 Nov 22:54:17 22:58:34 45° 100° (E) 23:02:56 437.575/2403.000
DX 1 23 Nov 22:55:56 22:57:39 12° 267° (W) 22:59:22 434.975-435.025
AIST 2 23 Nov 22:59:23 23:01:33 14° 312° (NW) 23:03:45 435.215
ESTCUBE 1 23 Nov 23:01:05 23:05:37 77° 76° (ENE) 23:10:11 437.505/2401.250
BUGSAT 1 23 Nov 23:08:09 23:11:52 33° 98° (E) 23:15:32 437.445
POPSAT HIP 1 23 Nov 23:08:27 23:12:28 43° 99° (E) 23:16:29 437.405
VELOX 1 23 Nov 23:12:22 23:16:10 27° 263° (W) 23:19:59 145.980
ZACube-1 23 Nov 23:22:01 23:23:57 13° 267° (W) 23:25:52 437.345
HUMSAT D 23 Nov 23:22:38 23:25:42 20° 265° (W) 23:28:46 437.325/437.525
50 SAT 23 Nov 23:28:07 23:31:07 20° 265° (W) 23:34:07 437.505
ISS 23 Nov 23:33:33 23:36:20 26° 131° (SE) 23:39:08 145.825
AISAT 23 Nov 23:38:44 23:41:04 14° 267° (W) 23:43:26 437.250
POLYITAN 1 23 Nov 23:40:19 23:44:32 73° 284° (WNW) 23:48:44 437.675
QB50P2 23 Nov 23:43:23 23:47:35 67° 284° (WNW) 23:51:46 145.880/145.840
TIGRISAT 23 Nov 23:50:24 23:54:31 39° 287° (WNW) 23:58:42 435.000
DUCHIFAT 1 23 Nov 23:51:09 23:55:16 54° 285° (WNW) 23:59:22 145.980
TISAT 1 23 Nov 23:54:26 23:58:42 73° 76° (ENE) 00:02:58 437.305
SPROUT 23 Nov 23:56:30 00:00:47 65° 76° (ENE) 00:05:04 437.525
CUBEBUG 1 23 Nov 23:59:31 00:03:04 23° 264° (W) 00:06:38 437.445
UNISAT 6 24 Nov 00:02:55 00:06:44 29° 289° (WNW) 00:10:36 437.425
AUBIESAT-1 24 Nov 00:08:56 00:12:12 25° 64° (ENE) 00:15:43 437.475
